Regional Weather Roundup
Issued by NWS

Home | Current Version | Previous Version | Text Only | Print | Product List | Glossary Off
Versions: 1 2 3 4 5 6 7 8 9 10 11 12 13 14 15 16 17 18 19 20 21 22 23 24 25 26 27 28 29 30 31 32 33 34 35 36 37 38 39 40 41 42 43 44 45 46 47 48 49 50

000
ASUS43 KFSD 172310
RWRSD

WEATHER ROUNDUP FOR SOUTH DAKOTA
NATIONAL WEATHER SERVICE SIOUX FALLS SD
500 PM CST WED JAN 17 2018

NOTE: "FAIR" INDICATES FEW OR NO CLOUDS BELOW 12,000 FEET WITH NO
SIGNIFICANT WEATHER AND/OR OBSTRUCTIONS TO VISIBILITY.


SDZ001>005-009-010-012>017-180000-
NORTHWEST AND NORTH CENTRAL SOUTH DAKOTA

CITY           SKY/WX    TMP DP  RH WIND       PRES   REMARKS
BUFFALO          N/A     33  22  63 W10       30.09S WCI  25
FAITH            N/A     36  26  67 W12       30.16F
MOBRIDGE       CLEAR     39  27  62 W10       30.10S
$$

SDZ012>016-024>037-041>051-057-063-072>074-180000-
SOUTHWEST AND SOUTH CENTRAL SOUTH DAKOTA

CITY           SKY/WX    TMP DP  RH WIND       PRES   REMARKS
RAPID CTY ARPT CLEAR     43  24  47 S6        30.21S
PIERRE         CLEAR     41  25  53 W13       30.16F
CUSTER         CLEAR     41  20  43 W9        30.18F
ELLSWORTH AFB  CLEAR     45  25  45 S3        30.20S
PHILIP         CLEAR     42  29  59 W8        30.20S
PINE RIDGE     CLEAR     40  24  53 S6        30.23F
SPEARFISH        N/A     46  21  36 CALM      30.18F
WINNER         FAIR      39  27  62 W8        30.20S
$$

SDZ004>011-016>023-039-040-180000-
NORTHEAST SOUTH DAKOTA

CITY           SKY/WX    TMP DP  RH WIND       PRES   REMARKS
ABERDEEN       CLEAR     39  24  55 W9        30.11R
WATERTOWN      CLEAR     28  18  66 SW7       30.10R WCI  21
BROOKINGS      CLEAR     26  17  68 SW7       30.15R WCI  18
SISSETON         N/A     34  22  61 W13       30.08R WCI  25
$$

SDZ017-020-022-023-036>040-048>070-180000-
SOUTHEAST SOUTH DAKOTA

CITY           SKY/WX    TMP DP  RH WIND       PRES   REMARKS
SIOUX FALLS    CLEAR     32  18  56 SW3       30.18F
HURON          CLEAR     38  23  55 SW3       30.14F
CHAMBERLAIN    CLEAR     38  28  66 SW5       30.18F
MITCHELL       CLEAR     35  23  61 W7        30.20R WCI  29
YANKTON        CLEAR     38  17  42 W10       30.22F
$$

ABBREVIATIONS USED IN REMARKS
   TC - TEMPERATURE IN CELSIUS
  WCI - WIND CHILL INDEX
   HX - HEAT INDEX
  VSB - VISIBILITY




USA.gov is the U.S. government's official web portal to all federal, state and local government web resources and services.